STARLINK-31301

decayed
NORAD ID: 59935 Int'l Des: 2024-106 Owner: SPXS Country: US Constellation: starlink
LEOCIRCULAR
グループ

STARLINK-31301について

説明を読み込み中...

高度履歴

Altitude vs Time

uPlot chart will show altitude changes over time

軌道要素

1 59935U 24106P 24222.71168253 .04949830 92180-5 10098-2 0 9991
2 59935 42.9989 356.0984 0013895 323.8977 127.5343 16.29919159 12262
Epoch: Aug 9, 2024 • Age: 9642 hours

現在のステータス

Position data unavailable
打ち上げ日 Jun 1, 2024
運用期間 1.2 years
落下予定日 Aug 9, 2024
タイプ internet

技術仕様

分類 Payload
質量 730.00 kg
乾燥質量 700.00 kg
総質量 730.00 kg
長さ 0.30 m
直径 4.10 m
スパン 29.00 m
形状 Box + pan
製造者 SPXS
バスタイプ Starlink V2M
フェーズステータス Unknown Transfer Status
所有者/国 SPXS/US

大規模コンステレーション

Loading constellations...